Regional Weather Roundup
Issued by NWS

Home | Current Version | Previous Version | Graphics & Text | Print | Product List | Glossary On
Versions: 1 2 3 4 5 6 7 8 9 10 11 12 13 14 15 16 17 18 19 20 21 22 23 24 25 26 27 28 29 30 31 32 33 34 35 36 37 38 39 40 41 42 43 44 45 46 47 48 49 50
194
ASUS43 KMKX 212310
RWRWI

WISCONSIN REGIONAL WEATHER ROUNDUP
NATIONAL WEATHER SERVICE MILWAUKEE/SULLIVAN WI
500 PM CST SAT JAN 21 2017

NOTE: "FAIR" INDICATES FEW OR NO CLOUDS BELOW 12,000 FEET WITH NO
SIGNIFICANT WEATHER AND/OR OBSTRUCTIONS TO VISIBILITY.

WIZ001-002-006>008-014>016-023>028-220000-
NORTHWEST WISCONSIN

CITY           SKY/WX    TMP DP  RH WIND       PRES   REMARKS
SUPERIOR ARPT  CLOUDY    35  35 100 NE8       29.49R FOG     WCI  28
ASHLAND        FOG       33  33 100 N3        29.48R VSB 1/4
HAYWARD        CLOUDY    36  34  92 NE6       29.45R FOG     WCI  31
SIREN          CLOUDY    36  36  99 CALM      29.46R FOG
CUMBERLAND     FOG       34  34 100 CALM      29.44R VSB 1/4
RICE LAKE      DRZL/FOG  36  36  99 CALM      29.46R VSB 1/4
CHETEK         FOG       35  35 100 CALM      29.45R VSB 1/2
LADYSMITH      FOG       37  37  97 CALM      29.46R VSB 1/2
EAU CLAIRE     FOG       36  32  85 CALM      29.45R VSB 1/4
MENOMONIE        N/A    N/A N/A N/A MISG        N/A
NEW RICHMOND   FOG       35  35 100 CALM      29.46R VSB 1/4
OSCEOLA        FOG       36  36 100 CALM      29.48R VSB 1/4
$$

WIZ003>005-009-010-017-018-220000-
NORTH CENTRAL WISCONSIN

CITY           SKY/WX    TMP DP  RH WIND       PRES   REMARKS
MANITOWISH WTR DRIZZLE   36  36 100 CALM      29.45R
ARBOR VITAE    LGT RAIN  37  36  96 SE3       29.45R VSB 1
WOODRUFF       LGT RAIN  37  36  96 SE3       29.45R VSB 1
RHINELANDER    LGT RAIN  36  36 100 SE6       29.45R VSB 3/4 WCI  31
EAGLE RIVER    CLOUDY    35  35 100 E6        29.44S WCI  30
LAND O LAKES   CLOUDY    37  36  98 E5        29.47S WCI  33
PHILLIPS       DRIZZLE   36  36 100 CALM      29.43R
TOMAHAWK       LGT RAIN  36  35  96 CALM      29.45R
MEDFORD        FOG       35  34  99 CALM      29.44R VSB 1/4
MERRILL        DRZL/FOG  36  36 100 CALM        N/A  VSB 1/4
$$

WIZ029-030-035-036-043>047-220000-
CENTRAL WISCONSIN

CITY           SKY/WX    TMP DP  RH WIND       PRES   REMARKS
WAUSAU         FOG       35  35 100 SE3       29.45R VSB 1/2
MOSINEE        LGT RAIN  36  36 100 SE5       29.47R VSB 1/2 WCI  32
MARSHFIELD     FOG       35  35 100 S3        29.44R VSB<1/4
STEVENS POINT  FOG       34  34 100 E3        29.47R VSB 1/2
WAUPACA        FOG       38  37  97 CALM      29.48R VSB 1/2
WAUTOMA        FOG       37  36  96 CALM      29.48R VSB 1/4
WISC RAPIDS    FOG       37  37 100 CALM      29.48R VSB 1/4
CAMP DOUGLAS   FOG       39  37  93 CALM      29.47R VSB 1
$$

WIZ011>013-019>022-031-037>040-048>050-220000-
NORTHEAST WISCONSIN

CITY           SKY/WX    TMP DP  RH WIND       PRES   REMARKS
ANTIGO         CLOUDY    34  34 100 SE5       29.46R FOG     WCI  30
SHAWANO        CLOUDY    37  35  95 NE3       29.47S FOG
OCONTO         CLOUDY    35  35  99 CALM      29.47F VSB 1/2
STURGEON BAY   LGT RAIN  40  40 100 SE3       29.49R VSB 1/2
GREEN BAY      FOG       36  36 100 NW3       29.47R VSB 1/2
MANITOWOC      FOG       38  37  97 MISG      29.48R VSB<1/4
APPLETON       FOG       36  36 100 CALM      29.45R VSB 1/8
CLINTONVILLE   FOG       36  36 100 N3        29.47R VSB 1
OSHKOSH        FOG       39  38  96 S6        29.46R VSB 1/4 WCI  35
$$

WIZ032>034-041-042-053>061-220000-
SOUTHWEST WISCONSIN

CITY           SKY/WX    TMP DP  RH WIND       PRES   REMARKS
LA CROSSE      FOG       42  39  89 S7        29.46R VSB 1/4
SPARTA         CLOUDY    38  38  99 S3        29.47R
VIROQUA        CLOUDY    39  39 100 S8        29.46R VSB<1/4 WCI  33
BOSCOBEL       CLOUDY    44  42  93 SW6       29.49R
PRAIRIE DU CHI CLOUDY    42  41  97 CALM      29.49R FOG
PLATTEVILLE    CLOUDY    42  42 100 SW13      29.50R
$$

WIZ056-057-062-063-064-067-068-220000-
SOUTH CENTRAL WISCONSIN

CITY           SKY/WX    TMP DP  RH WIND       PRES   REMARKS
REEDSBURG      CLOUDY    40  40 100 CALM      29.48R FOG
BARABOO/DELLS  CLOUDY    40  40  99 SW6       29.48R FOG
LONE ROCK      FOG       40  39  97 CALM      29.49R VSB 1/2
MINERAL POINT  CLOUDY    43  43 100 SW3       29.48S FOG
MADISON        CLOUDY    43  42  97 W3        29.49R FOG
MIDDLETON      CLOUDY    44  44 100 W5        29.49R
WATERTOWN      CLOUDY    44  44 100 W6        29.48R
MONROE         CLOUDY    41  41 100 S7        29.50R FOG
JANESVILLE     CLOUDY    46  45  93 W9        29.49R FOG
$$

WIZ051-052-058>065-066-070>072-220000-
SOUTHEAST WISCONSIN

CITY           SKY/WX    TMP DP  RH WIND       PRES   REMARKS
MILWAUKEE      PTCLDY    51  42  71 SW7       29.48R
WAUKESHA       PTCLDY    46  41  81 SW7       29.48R
MILWAUKEE/TIMM MOCLDY    52  43  71 SW6       29.48R
RACINE         CLEAR     50  42  74 SW7       29.50R
KENOSHA        CLEAR     51  42  71 SW6       29.49R
FOND DU LAC    CLOUDY    43  40  89 SW6       29.47R FOG
SHEBOYGAN      FOG       37  36  96 CALM      29.47R VSB<1/4
WEST BEND      FOG       41  41 100 CALM      29.48R VSB<1/4
JUNEAU         CLOUDY    41  40  95 SW7       29.49R FOG
$$

LSZ147-162-220000-
LAKE SUPERIOR

STATION/POSITION TIME  TEMP    WIND        PRES    WAVE
                       AIR SEA DIR/SP/G            HT/PER
                 (UTC) (F)     (DEG/KT/KT) (MB)    (FT/S)
DEVILS ISLAND    2300   35      60/ 10/ 11  999.2R
PORT WING        2240   33      30/  8/  9  998.6R
SAXON HARBOR     2240   34      60/  3/  5  998.3R
$$

LMZ867-665-643>646-220000-
LAKE MICHIGAN

STATION/POSITION TIME  TEMP    WIND        PRES    WAVE
                       AIR SEA DIR/SP/G            HT/PER
                 (UTC) (F)     (DEG/KT/KT) (MB)    (FT/S)
NORTHPORT PIER   2240   36        CALM      999.0R
SISTER BAY       2250   39        CALM       N/A
KEWAUNEE LAKESHO 2248           CALM  /  2  997.9S
SHEBOYGAN LAKESH 2300   40     240/  1/  2  998.4R
PORT WASHINGTON  2240   36      CALM  /  2  999.3R
KENOSHA   LAKESH 2300   53     210/  6/  8  999.0
$$

TC  - TEMPERATURE IN CELSIUS
VSB - VISIBILITY IN STATUTE MILES
WCI - WIND CHILL INDEX
HX  - HEAT INDEX





USA.gov is the U.S. government's official web portal to all federal, state and local government web resources and services.